RH
49 52 43 35 28 23 18 14 16 21 23 20 22 22 21 19 23 44 60 65 72 72 86 87 78 78 78 78 77 78 79 84 86 88 86 89 98 95 94 91 88 88 87 94 97 96 94 97 97
48 45 38 27 34 20 14 13 24 23 23 22 22 22 21 26 35 38 52 62 74 75 85 76 81 72 71 75 77 78 78 84 86 84 87 87 95 96 95 95 89 85 83 91 90 84 80 92 94
50 40 30 27 18 18 15 19 18 26 22 21 22 19 21 28 25 38 46 77 80 76 80 72 78 78 78 68 76 79 82 84 83 85 82 84 96 97 96 95 89 87 79 90 78 78 81 77 90
40 35 31 30 17 14 18 18 25 24 22 18 19 20 24 22 28 40 74 90 79 74 74 84 80 81 84 80 73 76 81 83 84 84 82 83 83 89 89 92 90 87 77 82 76 79 82 68 74
39 30 26 21 18 18 21 22 22 23 22 20 19 22 24 23 29 44 77 91 91 80 76 86 83 81 88 83 81 81 82 81 81 81 86 83 84 85 86 84 90 86 76 76 72 78 66 71 72
37 28 23 20 16 19 20 23 22 20 19 18 19 19 21 25 30 38 56 83 95 94 81 83 83 83 85 87 84 84 84 86 85 86 87 86 84 80 83 85 85 83 78 76 76 75 68 69 85
34 23 17 15 14 20 17 21 23 19 19 18 16 16 19 22 30 34 36 57 86 92 94 84 80 86 86 84 84 82 83 82 83 82 84 88 85 82 80 83 85 80 81 77 80 71 70 70 74
26 20 18 14 14 18 24 20 21 19 14 17 15 11 14 22 26 30 32 38 59 84 98 98 84 78 75 82 82 78 78 79 76 78 79 83 84 84 81 85 87 81 78 75 81 72 70 68 74
28 20 20 16 19 23 23 22 23 22 22 17 14 13 14 19 21 25 30 31 36 45 69 93 98 93 79 69 70 68 69 75 72 80 82 84 86 86 88 90 91 85 75 72 83 84 70 69 69
22 21 17 22 25 23 26 26 24 21 17 17 16 14 15 15 15 20 25 29 30 33 38 48 83 97 92 84 67 75 69 74 74 80 81 88 71 66 76 86 92 88 81 72 85 85 72 65 71
25 25 24 26 30 32 27 26 22 23 21 15 15 13 11 13 16 19 21 24 27 30 33 36 44 80 98 92 83 72 72 78 72 65 67 67 62 61 79 90 96 98 88 88 82 89 84 72 61
29 31 30 32 34 35 29 24 25 22 20 14 15 15 17 19 19 20 21 22 25 28 32 35 36 49 83 96 85 78 80 84 77 70 63 61 62 62 77 88 90 90 87 72 67 60 60 57 59
24 29 34 31 33 32 29 30 27 25 19 17 17 18 21 23 23 23 23 23 24 28 31 36 36 40 66 84 77 69 64 74 70 72 68 63 63 65 75 84 88 86 83 76 64 55 49 52 56
28 33 31 32 32 33 36 30 28 21 20 21 22 23 23 23 23 23 25 26 27 28 27 31 37 37 47 74 81 68 63 67 80 79 70 67 71 75 74 78 86 88 83 80 75 61 53 52 62
34 35 33 32 34 35 40 31 31 21 20 23 22 20 21 21 22 24 25 27 28 27 28 29 32 37 40 55 77 77 66 61 71 79 76 75 75 76 81 80 86 89 85 82 84 74 63 57 58
35 33 33 32 38 40 41 26 19 21 22 22 19 18 18 19 20 22 23 25 26 29 30 32 33 31 36 45 65 76 77 64 66 78 76 77 77 81 83 83 80 78 84 87 87 81 74 66 61
33 36 43 33 35 36 44 34 21 22 22 22 21 20 21 22 22 24 27 30 31 31 28 31 35 37 34 40 54 77 87 79 64 68 76 75 76 77 81 78 75 79 81 83 88 85 80 76 79
26 34 28 30 33 38 38 38 28 24 24 26 24 24 24 27 30 33 36 39 39 36 32 31 34 34 36 32 52 75 86 92 80 66 68 74 76 70 75 75 74 74 75 83 84 84 84 80 77
32 32 30 26 26 40 36 35 31 26 26 28 28 32 33 35 35 38 40 42 45 44 41 38 36 35 36 33 42 62 98 97 92 83 68 68 72 77 75 71 72 72 81 83 87 90 88 90 84
43 36 31 30 38 42 41 42 34 32 34 37 40 39 41 41 40 43 46 46 44 45 46 44 41 37 37 35 36 49 76 90 93 86 81 78 73 72 74 77 76 76 83 83 88 88 93 91 88
38 38 39 46 44 36 45 42 38 35 37 41 50 47 47 50 53 54 54 54 51 44 44 42 41 42 40 36 37 46 60 72 78 82 83 84 84 81 78 79 80 86 85 88 92 97 94 98 97
43 42 46 52 59 73 50 80 46 41 43 48 58 59 69 71 71 62 59 58 62 57 46 45 41 41 40 40 39 44 59 72 79 76 75 76 79 80 81 85 83 87 87 89 94 97 96 94 88
47 46 50 54 62 88 53 87 55 54 60 58 66 71 74 73 72 74 63 60 62 68 60 55 50 52 51 43 44 48 51 69 75 74 73 73 82 86 84 86 87 87 91 95 96 99 100 99 100
44 53 50 58 68 86 52 71 66 86 72 70 81 83 78 73 73 69 68 67 68 67 69 61 60 56 52 48 47 50 56 65 78 77 78 80 82 86 89 88 90 95 99 98 94 90 100 99 99
58 57 74 79 84 69 55 72 78 67 65 91 95 84 83 78 80 82 80 85 90 76 74 62 65 57 50 50 50 51 57 63 71 78 77 80 85 95 98 96 96 96 99 99 99 98 100 100 100
55 58 82 81 73 69 50 82 85 61 74 79 78 79 79 76 85 87 88 94 99 95 82 74 66 66 63 51 57 59 64 70 76 83 83 83 85 92 94 94 94 98 99 97 100 100 100 100 100
83 79 69 100 68 82 62 99 64 62 68 68 67 63 67 71 85 85 90 94 98 100 100 100 91 92 84 59 67 76 77 80 84 92 93 90 86 87 89 92 94 98 99 99 100 100 100 100 96
75 86 98 100 90 84 71 77 98 100 92 68 68 60 57 61 74 82 89 94 98 99 100 99 100 100 99 100 97 99 100 97 97 97 94 93 89 96 97 99 97 99 99 99 100 100 100 98 98
97 97 98 89 73 85 65 71 94 95 79 71 62 58 55 58 63 73 83 92 93 98 100 99 100 100 99 100 100 100 99 100 100 99 100 99 99 99 100 99 100 100 100 100 100 100 100 100 100
55 64 72 98 97 82 76 76 58 60 62 66 66 51 50 50 51 56 65 76 87 94 97 100 100 100 100 100 99 100 100 100 97 100 100 100 99 100 99 99 100 100 100 100 100 100 100 100 99
Wind_Speed
3 4 6 7 5 6 11 4 2 5 3 2 5 3 7 8 5 3 6 11 11 1 13 14 16 15 16 14 13 13 12 11 9 9 8 7 8 9 8 9 8 8 7 8 10 10 8 8 9
5 7 8 4 6 9 8 7 8 6 7 1 2 5 3 7 11 4 3 16 10 1 11 14 16 16 16 15 14 13 13 11 10 9 8 7 8 10 10 9 9 8 9 8 10 10 6 6 8
4 8 4 4 6 10 1 4 8 6 3 3 6 3 3 5 9 6 12 13 7 3 9 13 14 15 14 14 13 13 12 11 10 8 7 8 8 10 10 11 12 11 10 10 9 9 6 7 6
8 6 3 6 9 2 4 4 7 7 5 3 1 5 5 5 4 11 12 10 4 2 7 10 13 15 15 14 15 14 13 12 11 10 10 8 9 11 11 13 14 13 12 11 12 10 7 6 6
5 4 6 6 9 3 4 5 6 5 4 6 3 4 2 4 6 11 11 8 7 3 4 8 12 13 14 14 14 14 13 11 11 11 10 10 10 9 11 11 13 16 12 12 10 9 7 4 6
4 4 6 9 8 5 5 4 4 4 5 5 5 3 2 7 8 12 11 10 6 4 3 5 10 12 13 13 14 14 14 13 12 11 11 10 9 9 10 12 15 14 12 13 11 9 7 6 5
8 6 8 1 5 7 4 2 6 5 6 4 4 5 6 6 7 10 11 10 7 2 3 5 8 11 12 12 13 14 14 14 13 12 11 10 9 10 11 14 16 14 12 14 12 10 8 6 6
2 3 3 5 7 5 3 1 5 5 6 4 1 4 3 10 5 9 9 9 8 5 3 3 5 8 11 12 14 14 14 15 14 14 13 12 10 11 10 13 17 14 12 14 13 12 9 7 7
1 4 6 2 4 6 3 3 2 3 8 4 5 7 4 3 7 9 10 8 7 6 5 5 5 6 10 12 13 15 16 16 14 14 14 13 11 12 12 14 17 15 12 14 14 13 11 9 7
6 4 3 6 4 3 2 2 3 4 6 11 11 11 12 13 11 11 11 13 12 9 7 6 7 10 10 11 12 11 13 13 15 14 14 13 13 13 14 15 18 16 14 14 15 14 13 11 7
4 3 3 3 3 2 2 5 6 5 10 13 11 11 9 11 14 15 16 16 16 14 12 10 8 9 11 12 12 14 13 13 14 16 16 16 15 17 13 16 18 15 17 13 15 14 13 12 11
5 1 2 2 1 3 5 6 7 12 13 9 12 13 14 14 14 18 19 19 18 17 17 14 12 10 12 12 15 14 15 14 14 14 16 17 16 14 15 17 18 17 16 15 15 15 14 14 14
4 2 2 4 6 7 9 13 13 17 16 15 15 14 15 14 18 18 18 19 18 17 18 17 14 13 12 14 15 16 16 16 15 14 15 17 16 16 17 19 19 20 18 16 15 15 15 15 14
2 2 4 4 7 7 10 12 3 8 1 8 9 11 12 13 16 18 18 19 18 18 19 17 16 15 13 15 16 18 18 16 16 15 16 16 18 17 18 18 18 20 22 17 17 15 16 15 15
2 4 4 6 3 3 7 11 12 13 10 10 11 12 12 14 18 19 20 22 20 21 18 17 17 17 17 16 17 19 20 18 17 16 16 16 17 19 18 20 18 20 22 18 15 18 16 16 17
3 2 4 8 4 1 2 9 3 3 7 13 14 16 18 18 20 22 23 23 25 24 24 20 18 18 18 19 18 19 21 20 19 17 16 17 17 17 17 18 20 19 19 19 20 17 18 19 19
5 4 6 3 4 2 7 9 7 9 14 19 19 17 16 16 18 22 22 23 24 24 24 23 21 20 21 20 20 19 22 22 20 17 16 16 16 17 16 16 16 14 15 18 18 18 19 19 18
5 4 5 6 5 8 12 19 19 17 16 18 18 17 15 14 13 16 18 20 24 24 24 24 22 22 21 22 20 19 25 24 20 19 19 18 17 16 16 16 16 16 18 18 19 19 20 19 19
3 3 7 7 3 8 11 15 17 17 17 15 12 13 14 14 15 17 20 21 21 22 25 26 24 22 21 21 21 19 20 25 25 22 21 21 20 18 16 16 16 17 20 19 19 20 21 20 21
2 4 6 6 0 9 13 20 20 5 2 5 10 14 15 16 14 16 20 21 20 21 21 23 24 23 21 21 20 21 19 22 25 23 24 22 21 21 20 18 18 17 18 22 22 23 21 23 22
3 5 5 6 13 14 12 10 4 4 2 8 15 16 18 18 17 16 19 24 21 20 20 20 21 21 20 21 20 19 19 19 21 24 23 23 23 22 21 20 19 18 20 22 22 22 25 18 21
4 3 4 8 10 4 14 7 8 3 7 9 15 15 16 18 19 18 21 21 24 22 20 20 20 20 21 22 22 22 19 18 19 20 21 20 20 20 20 21 20 20 21 21 22 22 26 27 22
3 5 9 10 9 8 1 4 6 3 9 15 16 17 18 16 16 16 20 26 26 27 21 20 20 20 21 22 23 22 22 19 20 21 18 18 16 17 18 19 19 21 21 22 23 25 29 28 25
8 8 8 1 1 4 4 6 3 4 11 17 16 15 18 20 18 19 27 25 26 23 21 18 16 17 17 22 23 23 22 21 20 18 18 15 18 16 16 17 18 18 21 24 26 25 27 27 24
3 5 2 2 2 3 2 5 6 6 10 8 12 13 14 16 14 16 19 18 22 18 18 14 13 14 16 21 23 24 24 23 22 22 18 18 16 17 18 15 17 18 18 20 21 24 26 27 25
1 3 2 4 3 6 3 5 1 5 5 6 10 10 12 13 14 14 14 19 15 13 9 12 12 13 15 19 21 23 24 23 21 20 19 18 19 18 16 14 16 18 19 21 23 24 26 25 25
2 1 5 3 7 4 4 3 5 4 4 6 9 9 10 12 13 15 16 19 14 15 17 17 4 5 4 16 17 15 18 18 19 18 18 18 18 16 15 16 16 17 20 21 20 25 24 21 19
2 4 2 3 3 4 4 3 4 3 7 6 10 11 12 14 15 13 13 18 15 13 13 17 18 15 14 11 9 5 7 11 11 16 19 15 16 11 14 15 18 19 18 20 19 20 24 24 23
3 2 3 4 4 3 5 1 6 9 7 7 7 10 11 10 11 11 12 18 16 17 13 14 17 15 15 16 14 11 10 6 6 13 11 14 12 9 9 8 6 10 12 9 11 12 13 14 15
7 7 7 3 1 4 4 5 8 7 4 5 6 8 7 8 7 8 12 16 20 21 20 17 23 18 18 17 20 19 25 23 22 18 22 22 20 18 17 16 14 15 13 10 9 10 9 8 8
Wind_Direction
235 207 186 188 213 239 226 185 41 148 176 100 17 295 353 29 359 34 104 22 356 27 163 176 184 184 184 179 174 172 171 171 174 172 165 176 163 159 159 155 152 147 131 117 123 114 111 110 112
207 184 194 198 249 214 207 138 195 141 81 342 202 224 228 104 41 51 104 349 347 255 169 179 189 185 188 192 184 181 181 181 181 179 176 191 178 169 170 171 167 156 151 147 130 123 127 122 123
196 208 204 206 233 232 169 159 147 110 147 168 191 285 9 38 42 10 347 333 339 250 177 194 195 192 189 191 191 186 187 187 190 186 193 203 187 181 179 178 175 168 163 160 142 148 163 128 123
176 195 247 244 219 132 46 136 120 151 137 135 10 173 104 43 13 351 344 346 340 223 192 184 198 200 195 193 197 195 198 200 201 201 199 207 209 199 189 185 182 175 171 168 164 173 166 141 135
203 226 233 232 228 93 92 114 167 175 128 159 160 117 111 91 33 15 11 355 348 316 199 184 203 198 205 205 202 201 202 211 213 209 211 213 218 205 204 199 188 179 177 182 180 180 173 166 168
182 271 223 225 185 147 127 141 185 206 148 120 218 194 120 113 39 19 20 14 349 357 220 193 199 198 205 212 212 213 209 208 216 215 218 224 227 223 208 204 188 185 184 189 187 183 168 152 152
241 223 241 282 160 166 152 359 232 230 216 210 39 266 98 150 32 12 10 15 10 305 0 245 199 209 214 210 214 219 223 221 224 228 233 228 230 227 229 215 200 196 197 197 196 191 180 173 172
272 272 227 218 185 145 92 202 349 277 246 44 300 242 234 111 5 352 355 3 11 7 324 314 245 206 219 224 223 220 222 227 230 231 229 231 227 229 228 209 204 206 211 206 209 199 192 190 192
297 238 226 190 203 102 117 234 100 331 280 257 246 281 350 323 319 322 329 328 340 348 350 305 260 249 230 231 225 231 227 223 225 231 230 228 220 220 219 204 208 214 213 208 206 207 204 205 208
207 243 263 32 48 117 133 279 355 290 250 254 255 261 269 276 280 296 301 303 303 302 306 312 275 251 241 228 227 225 227 226 225 222 223 218 224 221 207 207 213 216 217 211 211 214 214 216 217
168 261 73 93 29 336 277 253 249 273 265 261 277 288 296 293 289 286 285 283 282 282 281 285 285 269 250 238 228 228 223 223 224 225 220 218 223 215 210 199 210 207 213 209 213 215 215 217 218
192 254 330 25 83 294 286 311 258 245 250 306 289 290 288 281 280 282 282 278 277 276 274 269 268 267 249 243 233 229 221 225 224 222 224 220 220 212 212 210 207 204 205 208 206 210 216 219 221
234 155 267 281 289 282 283 267 269 268 267 268 272 272 270 273 275 275 275 276 273 269 267 264 259 256 253 243 238 235 227 215 223 221 220 226 224 217 213 211 214 208 206 207 209 211 214 219 223
54 231 272 283 287 279 285 287 307 263 272 281 273 270 269 267 270 274 271 271 272 272 266 261 253 248 248 243 237 236 231 227 224 221 220 222 222 225 222 220 209 211 208 211 212 216 217 220 226
142 269 226 236 263 287 324 274 231 266 269 279 277 270 270 274 274 269 270 264 269 276 267 259 255 247 240 241 242 237 235 229 222 223 219 217 222 223 227 223 221 220 217 219 215 217 224 224 226
199 252 258 133 187 126 285 276 205 201 277 278 285 281 284 284 277 274 276 269 266 270 258 255 254 248 242 237 237 238 239 231 227 220 218 220 218 217 215 220 226 224 219 219 218 218 222 223 229
198 229 221 235 192 235 225 288 300 303 288 289 289 288 289 290 288 283 281 279 273 265 256 252 250 247 241 237 236 236 234 236 227 217 214 212 215 215 218 219 226 229 225 224 217 219 222 225 231
180 226 205 253 154 230 263 266 277 281 282 283 289 294 297 300 303 303 292 286 280 267 254 251 249 245 243 236 231 230 235 230 227 222 217 213 212 214 219 224 232 232 234 230 228 226 227 230 230
15 302 284 284 299 300 274 285 289 288 283 283 304 315 307 310 311 297 290 286 278 268 256 250 248 243 238 232 230 224 219 227 226 225 223 220 218 218 225 229 231 233 232 238 236 234 230 230 236
353 305 293 304 5 301 292 295 287 330 2 328 322 321 319 313 315 319 313 297 278 264 255 250 246 240 234 231 231 235 222 231 226 224 224 225 225 224 228 232 233 232 236 242 237 236 234 241 237
225 282 330 308 317 280 328 287 160 141 284 11 350 334 330 329 330 324 317 315 293 271 251 245 241 234 233 231 232 232 236 236 230 227 224 224 229 229 229 232 234 235 237 240 235 231 226 230 224
263 23 305 312 341 309 0 296 293 309 303 354 344 340 337 336 331 322 316 312 305 288 261 246 239 235 231 226 228 227 230 229 233 228 227 227 228 228 230 231 232 237 240 243 239 233 232 226 242
14 321 302 302 307 323 100 245 279 17 318 329 335 331 333 326 319 314 308 307 306 291 270 255 243 241 238 224 227 226 230 227 238 239 235 225 230 235 232 232 236 239 240 241 242 246 232 234 234
313 301 290 57 259 263 220 204 247 320 323 326 329 334 336 332 325 319 310 306 296 281 270 248 243 238 229 220 221 224 230 221 229 236 233 233 235 229 232 232 235 236 236 243 250 252 238 232 240
249 306 312 231 241 277 96 234 301 325 344 322 321 325 327 321 325 324 325 318 298 273 281 236 241 241 228 219 221 218 220 226 225 229 227 230 228 227 230 229 232 235 237 241 244 249 241 228 217
313 326 333 293 299 315 184 249 293 345 358 314 315 310 309 330 338 339 338 333 341 21 326 289 251 253 241 230 226 225 215 222 224 227 231 231 234 236 237 237 239 245 244 251 250 246 235 225 222
44 238 34 327 233 274 225 266 236 349 308 329 329 328 341 346 339 348 348 349 355 32 35 32 352 346 332 236 231 232 236 225 223 227 229 233 235 242 239 241 246 246 247 245 239 239 229 213 221
192 19 226 181 280 283 223 252 264 287 294 312 317 342 351 354 342 352 356 355 10 34 46 52 48 43 45 58 89 150 199 216 232 231 227 230 232 222 235 258 260 254 245 245 245 230 230 229 239
149 226 210 307 274 296 307 205 205 216 253 293 323 338 345 352 348 348 358 4 19 36 46 52 62 53 52 58 70 70 73 101 123 194 190 193 191 191 189 194 144 142 155 192 207 200 208 215 212
249 248 214 250 102 250 288 282 184 200 207 224 280 322 340 347 355 356 6 4 10 17 28 44 57 57 59 70 74 61 84 83 71 83 116 111 107 106 95 101 97 86 84 87 85 86 90 108 110